TimeCDT,TemperatureF,Dew PointF,Humidity,Sea Level PressureIn,VisibilityMPH,Wind Direction,Wind SpeedMPH,Gust SpeedMPH,PrecipitationIn,Events,Conditions,WindDirDegrees,DateUTC
12:53 AM,68.0,55.9,65,29.94,10.0,South,11.5,-,N/A,,Clear,180,2013-09-15 05:53:00
1:53 AM,66.9,55.9,68,29.93,10.0,South,9.2,-,N/A,,Clear,170,2013-09-15 06:53:00
2:53 AM,66.0,57.0,73,29.93,10.0,SSE,8.1,-,N/A,,Clear,160,2013-09-15 07:53:00
3:53 AM,64.9,57.0,75,29.93,10.0,South,8.1,-,N/A,,Clear,170,2013-09-15 08:53:00
4:53 AM,64.9,57.0,75,29.93,10.0,South,11.5,-,N/A,,Clear,180,2013-09-15 09:53:00
5:53 AM,64.0,57.9,80,29.94,10.0,South,9.2,-,N/A,,Partly Cloudy,180,2013-09-15 10:53:00
6:53 AM,64.9,57.9,78,29.94,10.0,South,9.2,-,N/A,,Mostly Cloudy,180,2013-09-15 11:53:00
7:53 AM,66.0,57.9,75,29.96,10.0,South,10.4,-,N/A,,Partly Cloudy,170,2013-09-15 12:53:00
8:53 AM,70.0,59.0,68,29.95,10.0,South,11.5,-,N/A,,Partly Cloudy,190,2013-09-15 13:53:00
9:53 AM,75.9,59.0,56,29.96,10.0,SSW,16.1,21.9,N/A,,Clear,200,2013-09-15 14:53:00
10:53 AM,81.0,60.1,49,29.96,10.0,SW,13.8,23.0,N/A,,Clear,220,2013-09-15 15:53:00
11:53 AM,82.0,62.1,51,29.99,10.0,West,11.5,-,N/A,,Partly Cloudy,270,2013-09-15 16:53:00
12:53 PM,84.0,62.1,47,29.98,10.0,Variable,3.5,-,N/A,,Partly Cloudy,0,2013-09-15 17:53:00
1:53 PM,84.9,62.1,46,29.96,10.0,WNW,4.6,-,N/A,,Clear,300,2013-09-15 18:53:00
2:53 PM,84.9,63.0,48,29.96,10.0,Calm,Calm,-,N/A,,Clear,0,2013-09-15 19:53:00
3:53 PM,88.0,64.0,45,29.96,10.0,North,4.6,-,N/A,,Clear,10,2013-09-15 20:53:00
4:53 PM,88.0,64.0,45,29.95,10.0,North,4.6,-,N/A,,Clear,350,2013-09-15 21:53:00
5:53 PM,82.9,64.9,54,29.97,9.0,NE,5.8,-,N/A,,Scattered Clouds,50,2013-09-15 22:53:00
6:53 PM,77.0,66.9,71,30.00,9.0,NNE,16.1,25.3,N/A,,Mostly Cloudy,20,2013-09-15 23:53:00
7:43 PM,71.6,64.4,78,30.05,8.0,NNE,13.8,21.9,0.00,Rain-Thunderstorm,Light Rain,20,2013-09-16 00:43:00
7:53 PM,71.1,64.9,81,30.04,9.0,NNE,13.8,-,0.00,Rain,Light Rain,30,2013-09-16 00:53:00
8:53 PM,68.0,64.9,90,30.07,5.0,NNE,12.7,-,0.03,Rain,Light Rain,30,2013-09-16 01:53:00
9:53 PM,66.9,64.0,90,30.08,8.0,NE,10.4,-,0.00,,Mostly Cloudy,50,2013-09-16 02:53:00
10:09 PM,66.2,64.4,94,30.10,8.0,NE,9.2,-,N/A,,Mostly Cloudy,50,2013-09-16 03:09:00
10:36 PM,66.2,64.4,94,30.11,9.0,NE,6.9,-,N/A,,Overcast,40,2013-09-16 03:36:00
10:53 PM,66.9,64.0,90,30.10,9.0,NE,6.9,-,N/A,,Overcast,40,2013-09-16 03:53:00
11:53 PM,66.9,63.0,87,30.12,8.0,NE,12.7,-,N/A,,Overcast,40,2013-09-16 04:53:00